Terminal Aerodrome Forecast
Issued by NWS

Home | Current Version | Previous Version | Text Only | Print | Product List | Glossary On
Versions: 1 2 3 4 5 6 7 8 9 10 11 12 13 14 15 16 17 18 19 20 21 22 23
000
FTAK31 PANC 092339
TAFAAQ
TAF
PAAQ 092339Z 1000/1024 35012KT P6SM SKC
     FM100500 03012G25KT P6SM SCT120
     FM101800 02009KT P6SM FEW150=

USA.gov is the U.S. government's official web portal to all federal, state and local government web resources and services.